Location: Krasnoyarskiy Pitomnik
(51.1333°N, 71.6167°E)
Time: 06:15:04
(UTC+00:00)

Transit 4A - Pass Details

Date: 21 April 2024
Orbit: 871 x 971 km, 66.8° (Epoch: 28 May)

Event Time Altitude Azimuth Distance (km) Brightness Sun altitude
Rises 15:28:02 0° 322° (NW) 3,474 12.5 -10.3°
Reaches altitude 10° 15:30:33 10° 326° (NW) 2,530 11.4 -10.6°
Maximum altitude 15:36:21 64° 47° (NE) 968 8.0 -11.3°
Enters shadow 15:41:02 16° 127° (SE) 2,131 9.1 -11.9°
